Corona, CA

5:56 AM PDT on September 24, 2017 (GMT -0700)
Corona Municipal

Weather History for KAJO - January, 2013

Change the Weather History Date:

Tuesday, January 22, 2013

  Actual Average (KCNO) Record (KCNO)
Temperature  
Mean Temperature 56 °F -  
Max Temperature 82 °F 64 °F 81 °F (2014)
Min Temperature 31 °F 39 °F 32 °F (2006)
Degree Days  
Heating Degree Days 8    
Growing Degree Days 6 (Base 50)    
Moisture  
Dew Point 17 °F    
Average Humidity 28    
Maximum Humidity 61    
Minimum Humidity 4    
Precipitation  
Precipitation 0.00 in - - ()
Sea Level Pressure  
Sea Level Pressure 30.07 in    
Wind  
Wind Speed 5 mph (SSW)    
Max Wind Speed 13 mph    
Max Gust Speed -    
Visibility 10 miles    
Events      
Averages and records for this station are not official NWS values.
T = Trace of Precipitation, MM = Missing Value Source: NWS Daily Summary

Daily Weather History Graph

Daily Weather History Graph

Search for Another Location

Airport or City:

Trip Planner

Search our weather history database for the weather conditions in past years. The results will help you decide how hot, cold, wet, or windy it might be!

Date:

Astronomy

Jan. 22, 2013 Rise Set
Actual Time 6:52 AM PST 5:11 PM PST
Civil Twilight 6:26 AM PST 5:38 PM PST
Nautical Twilight 5:55 AM PST 6:08 PM PST
Astronomical Twilight 5:26 AM PST 6:38 PM PST
Moon 1:40 PM PST (1/22) 3:16 AM PST (1/22)
Length of Visible Light 11h 12m
Length of Day
10h 18m
Waxing Gibbous, 83% of the Moon is Illuminated
Jan 22
Waxing Gibbous
Jan 26
Full
Feb 3
Last Quarter
Feb 9
New
Feb 17
First Quarter

Hourly Weather History & Observations

Time (PST) Temp. Windchill Dew Point Humidity Pressure Visibility Wind Dir Wind Speed Gust Speed Precip Events Conditions
12:56 AM 53.6 °F - 10.4 °F 18% 30.09 in 10.0 mi SE 12.7 mph - N/A   Clear
1:56 AM 50.9 °F - 12.0 °F 21% 30.07 in 10.0 mi ESE 8.1 mph - N/A   Clear
2:56 AM 43.0 °F - 20.1 °F 40% 30.08 in 10.0 mi Calm Calm - N/A   Clear
3:56 AM 39.2 °F 35.9 °F 19.4 °F 45% 30.09 in 10.0 mi West 4.6 mph - N/A   Clear
4:56 AM 36.9 °F - 18.1 °F 47% 30.08 in 10.0 mi Calm Calm - N/A   Clear
5:56 AM 36.0 °F 31.1 °F 21.0 °F 55% 30.10 in 10.0 mi West 5.8 mph - N/A   Clear
6:56 AM 31.1 °F - 19.0 °F 61% 30.12 in 10.0 mi Calm Calm - N/A   Clear
7:56 AM 39.9 °F - 22.1 °F 49% 30.11 in 10.0 mi Calm Calm - N/A   Clear
8:56 AM 52.9 °F - 23.0 °F 31% 30.12 in 10.0 mi Calm Calm - N/A   Clear
9:56 AM 68.0 °F - 26.6 °F 21% 30.13 in 10.0 mi Calm Calm - N/A   Clear
10:56 AM 75.9 °F - 9.1 °F 8% 30.10 in 10.0 mi Variable 3.5 mph - N/A   Clear
11:56 AM 79.0 °F - 1.0 °F 5% 30.05 in 10.0 mi ESE 8.1 mph - N/A   Clear
12:56 PM 82.4 °F - -0.4 °F 4% 30.03 in 10.0 mi Variable 3.5 mph - N/A   Clear
1:56 PM 81.9 °F - 2.1 °F 5% 30.01 in 10.0 mi SW 3.5 mph - N/A   Clear
2:56 PM 81.0 °F - 0.1 °F 4% 30.01 in 10.0 mi West 3.5 mph - N/A   Clear
3:56 PM 75.2 °F - 15.8 °F 11% 30.02 in 10.0 mi West 5.8 mph - N/A   Clear
4:56 PM 70.9 °F - 22.1 °F 16% 30.02 in 10.0 mi WSW 4.6 mph - N/A   Clear
5:56 PM 68.0 °F - 22.1 °F 18% 30.04 in 10.0 mi South 5.8 mph - N/A   Clear
6:56 PM 59.0 °F - 23.0 °F 25% 30.07 in 10.0 mi Calm Calm - N/A   Clear
7:56 PM 52.0 °F - 25.2 °F 35% 30.08 in 10.0 mi Calm Calm - N/A   Clear
8:56 PM 54.9 °F - 24.1 °F 30% 30.08 in 10.0 mi East 6.9 mph - N/A   Clear
9:56 PM 53.6 °F - 21.2 °F 28% 30.09 in 10.0 mi East 8.1 mph - N/A   Clear
10:56 PM 46.9 °F - 26.1 °F 44% 30.10 in 10.0 mi Calm Calm - N/A   Clear
11:56 PM 45.0 °F - 27.1 °F 50% 30.09 in 10.0 mi Calm Calm - N/A   Clear